sat.trackr.live / text

‹ back to catalog

STARLINK-36238

NORAD 68563 · 2026-070X

PAYLOAD ACTIVE UNKNOWN

§ Identity

Operator
Country
US
Launch date
2026-04-02
Launch site
AFETR
Launch vehicle
Mass (kg)
RCS (m²)

Purposes: comms

External: N2YO · Heavens-Above · Gunter

§ Orbital elements

Epoch: 2026-05-25T04:00:03.998880Z

Period
93.85 min
Inclination
53.1587°
Eccentricity
0.0000900
Mean motion
15.34385932 rev/d
Perigee alt
462.1 km
Apogee alt
463.4 km
Semi-major
6,840.9 km
B*
3.5343e-4
RAAN
6.6664°
Arg perigee
79.1601°
Mean anomaly
271.7469°
Rev number
590

§ Raw data

STARLINK-362381 68563U 26070X   26145.16671295  .00011578  00000+0  35343-3 0  99902 68563  53.1587   6.6664 0000900  79.1601 271.7469 15.34385932  5903

JSON: /api/v1/satellites/68563 · /tle

For live sub-satellite position, see the globe view (requires WebGL).

§ Visibility from observer

Set your observer location to see the next 7 days of passes ≥ 10°. The values pass through the URL so the page stays shareable.

No JS? Fill the form by hand. The geolocation button needs JavaScript.